Tracking 30995 objects as of 7-Jul-2025
HD Live streaming from Space Station
objects crossing your sky now

STARLINK-30473

Track STARLINK-30473 now!
10-day predictions
STARLINK-30473 is classified as:


NORAD ID: 57893
Int'l Code: 2023-146C
Perigee: 564.9 km
Apogee: 567.6 km
Inclination: 43.0 °
Period: 95.8 minutes
Semi major axis: 6937 km
RCS: Unknown
Launch date: September 20, 2023
Source: United States (US)
Launch site: AIR FORCE EASTERN TEST RANGE (AFETR)
Your satellite tracking list
Your tracking list is empty




NASA's NSSDC Master Catalog

Two Line Element Set (TLE):
1 57893U 23146C   25187.09943506  .00000517  00000-0  53343-4 0  9992
2 57893  43.0029 213.1095 0001958 295.6240  64.4400 15.02530993 99760
Source of the keplerian elements: AFSPC